Temperature
17 17 17 17 17 17 17 17 17 17 17 17 17 17 17 17 17 17 17 17 17 16 16 16 16 16 16 16 16 16 16 16 16 16 16 16 16 16 16 16 15 15 15
16 16 17 17 17 17 17 17 17 17 17 17 17 17 17 17 17 17 17 16 16 16 16 16 16 16 16 16 16 16 16 16 16 16 16 16 16 16 16 15 15 15 15
16 16 16 16 16 16 17 17 17 17 17 17 17 17 17 17 17 17 17 16 16 16 16 16 16 16 16 16 16 16 16 16 16 16 15 15 15 15 15 15 15 15 15
16 16 16 16 16 16 16 16 17 17 17 17 17 17 17 16 16 16 16 16 16 16 16 16 16 16 16 16 16 16 16 16 16 15 14 14 14 15 15 15 15 15 15
16 16 16 16 16 16 16 16 16 16 17 17 16 16 16 16 16 16 16 16 16 16 16 16 16 16 16 16 16 16 16 16 16 15 14 14 14 14 14 15 15 15 15
15 15 16 16 16 16 16 16 16 16 16 16 16 16 16 16 16 16 16 16 16 16 16 16 16 16 16 16 16 16 16 16 15 14 14 14 14 14 14 15 15 14 14
15 15 15 16 16 16 16 16 16 16 16 16 16 16 16 16 16 16 16 16 16 16 16 16 16 16 16 16 16 16 16 16 14 14 14 14 14 14 14 14 14 14 14
15 15 15 15 15 15 16 16 16 16 16 16 16 16 16 16 16 16 16 16 16 16 16 16 16 16 16 16 16 16 16 15 15 14 14 14 14 14 14 14 14 14 14
14 15 15 15 15 15 15 16 16 16 16 16 16 16 16 16 16 16 16 16 16 16 16 16 16 15 15 15 15 15 15 15 14 14 14 14 14 14 14 14 14 14 14
14 14 14 15 15 15 15 15 15 15 15 15 15 15 15 15 15 15 15 15 15 15 15 15 15 15 15 15 15 15 15 15 14 14 14 14 14 14 14 14 14 14 14
13 14 14 14 14 15 15 15 15 15 15 15 15 15 15 15 15 15 15 15 15 15 15 15 15 15 15 15 15 15 15 14 14 14 14 14 14 14 14 14 14 14 13
13 13 14 14 14 14 14 15 15 15 15 15 14 15 14 14 15 15 15 15 15 15 15 15 15 15 15 15 15 15 14 14 14 14 14 14 14 14 14 14 14 14 13
12 13 13 13 14 14 14 14 14 14 14 14 14 14 14 14 14 14 14 14 14 14 14 14 14 14 14 14 14 14 14 14 14 14 14 14 14 14 14 14 14 13 13
12 12 13 13 13 14 14 14 14 14 14 14 14 14 14 14 14 14 14 14 14 14 14 14 14 14 14 14 14 14 14 14 14 14 14 14 14 14 14 14 14 13 13
12 12 12 13 13 13 13 14 14 14 14 14 14 14 14 14 14 14 14 14 14 14 14 14 14 14 14 14 14 14 14 14 14 14 14 14 14 14 14 14 13 13 13
11 11 12 12 13 13 13 13 13 13 14 14 14 14 14 14 14 14 14 14 14 14 14 14 14 14 14 14 14 14 14 14 14 14 14 14 14 14 14 13 13 13 13
10 11 11 12 12 13 13 13 13 13 13 13 13 13 14 14 14 14 14 14 14 14 14 13 13 13 13 14 14 14 13 13 14 14 14 13 13 14 14 13 13 13 13
10 11 11 11 12 12 12 12 12 13 13 13 13 13 13 13 13 13 13 13 13 13 13 13 13 13 13 13 13 13 13 13 13 13 13 13 13 13 13 13 13 13 13
10 10 10 11 11 12 12 12 12 12 12 12 12 13 13 13 13 13 13 13 13 13 13 13 13 13 13 13 13 13 13 13 13 13 13 13 13 13 13 13 13 13 13
9 9 10 10 10 11 11 11 11 12 12 12 12 12 13 13 13 13 13 13 13 13 13 13 13 13 13 13 13 13 13 13 13 13 13 13 13 13 13 13 13 13 13
8 9 9 10 10 10 11 11 11 11 11 12 12 12 12 12 12 12 12 12 12 12 13 13 12 12 12 12 12 12 12 12 13 13 13 13 13 13 13 13 12 12 13
8 8 9 9 9 10 10 10 10 11 11 11 11 11 12 12 12 12 12 12 12 12 12 12 12 12 12 12 12 11 11 11 12 12 12 12 12 12 12 12 12 12 12
8 8 8 8 9 9 9 10 10 10 10 10 11 11 11 11 11 12 12 12 12 12 12 12 12 12 11 12 11 11 11 12 12 12 12 12 12 12 12 12 12 12 12
7 7 8 8 8 9 9 9 9 9 10 10 10 11 11 11 11 11 11 11 11 11 11 11 11 11 11 11 11 11 11 12 11 11 11 12 12 12 12 12 12 12 12
7 7 7 8 8 8 8 9 9 9 9 10 10 10 11 11 11 11 11 11 11 11 11 11 11 11 11 11 11 11 11 11 11 12 11 11 11 11 12 12 12 12 12
6 6 7 7 7 8 8 8 9 9 9 9 9 10 10 10 10 10 10 11 10 10 11 11 11 11 11 11 11 11 11 11 11 11 11 11 11 11 11 11 11 12 12
Wind_Speed
1 2 7 12 14 15 16 17 18 20 20 20 20 19 19 18 17 17 17 16 16 16 16 16 16 16 15 16 16 16 17 17 17 17 17 17 16 16 15 13 13 15 16
3 3 8 11 14 15 15 16 19 19 20 20 20 20 19 18 18 17 17 17 16 16 16 16 16 16 16 16 16 17 17 17 17 17 16 16 15 15 15 14 14 14 15
2 3 8 10 13 15 16 16 18 19 20 20 20 20 19 19 18 18 17 17 16 16 17 16 16 16 17 17 16 16 17 16 16 14 12 13 14 15 15 15 15 15 15
1 2 7 9 11 14 16 16 17 19 20 20 20 20 20 19 19 18 17 17 17 17 16 17 17 17 17 16 16 16 16 15 13 8 9 11 12 14 14 14 14 14 14
1 2 5 8 10 12 15 16 17 18 20 20 20 20 20 19 19 18 18 17 17 17 17 17 17 17 16 16 15 15 15 13 9 7 11 11 12 13 13 13 13 13 13
1 2 4 7 9 11 12 16 17 17 19 20 20 20 20 19 19 18 18 17 17 17 17 17 17 16 15 15 15 14 14 12 9 10 10 10 11 12 12 12 12 12 12
3 3 4 7 9 11 11 13 16 17 18 19 20 20 20 19 19 18 18 18 18 18 18 17 16 16 15 14 14 14 13 9 8 9 8 9 11 12 11 11 11 11 11
4 4 4 7 9 10 12 12 16 18 18 19 19 20 20 19 19 18 18 18 19 18 18 17 16 15 15 14 14 13 12 8 8 8 8 9 11 11 11 11 10 10 10
4 4 4 6 9 11 12 12 15 17 18 19 19 19 19 19 19 18 19 19 19 18 18 17 16 16 15 14 14 13 10 7 7 7 8 8 10 10 10 10 9 9 8
5 4 4 5 7 9 11 13 15 16 17 17 19 19 18 17 18 19 19 19 19 19 18 17 16 16 15 14 13 12 11 8 7 8 6 8 10 9 9 9 8 8 7
6 5 4 5 6 8 9 12 15 15 16 17 18 17 18 17 17 18 19 19 19 18 18 17 16 15 14 13 13 12 11 7 7 6 6 9 9 9 9 8 7 7 6
8 6 5 5 5 6 7 9 12 14 15 16 16 18 17 16 15 16 18 19 19 18 17 16 15 15 13 11 11 12 8 8 7 6 6 9 9 9 9 8 7 6 6
9 8 6 6 5 5 5 7 8 10 12 14 16 17 16 14 13 13 14 15 16 17 16 15 15 13 12 10 10 10 8 7 6 6 7 9 9 9 9 8 7 6 6
9 9 7 7 6 6 5 6 7 7 9 9 13 17 14 10 10 11 11 13 14 14 13 13 12 13 12 11 11 10 9 7 6 6 7 9 9 9 9 8 8 7 6
10 9 9 7 7 6 5 5 7 7 8 10 11 14 15 10 11 10 10 12 13 13 13 12 11 12 11 11 10 10 9 8 8 7 7 9 9 9 9 9 9 8 7
10 9 8 8 7 6 5 6 6 7 8 9 9 12 15 12 10 10 10 10 11 12 12 12 12 10 9 9 9 10 9 9 8 8 7 9 10 10 10 10 9 8 8
9 8 8 7 7 7 7 7 6 7 8 8 9 11 13 13 12 11 10 10 11 13 13 11 11 10 8 8 9 9 9 9 9 9 9 8 9 11 10 10 9 8 7
9 8 6 6 6 6 6 6 6 7 7 8 9 10 12 13 13 11 10 10 12 12 11 9 10 10 9 9 8 8 7 8 10 10 9 9 9 9 10 10 9 8 8
8 7 6 6 6 6 6 6 6 6 7 7 8 9 11 13 14 11 9 10 11 10 10 10 10 10 10 9 8 7 8 8 8 9 10 10 9 9 9 9 10 9 9
6 6 5 5 5 5 5 5 5 6 6 6 7 8 11 12 13 11 9 11 11 9 10 10 11 10 9 9 8 7 7 8 7 8 9 9 9 10 10 9 9 9 10
5 4 4 5 5 4 4 5 6 7 6 6 7 7 10 12 13 11 9 10 10 10 11 12 11 11 10 8 7 6 6 7 8 8 8 8 9 10 11 11 10 9 9
5 5 5 5 5 5 5 6 6 6 6 6 5 6 9 11 11 11 11 10 11 10 12 12 10 9 8 9 8 6 5 6 8 8 8 8 9 9 10 11 11 10 9
5 5 5 6 6 5 6 5 5 5 5 5 6 6 8 10 11 10 11 11 11 11 11 12 12 13 10 10 9 7 6 7 6 7 10 9 9 9 9 10 11 11 11
6 5 5 5 5 5 5 6 7 7 7 7 6 6 7 9 10 11 11 12 11 10 11 12 12 11 12 11 10 9 7 4 5 5 7 9 10 10 10 8 10 11 11
6 5 5 5 4 4 4 6 7 7 6 5 6 7 8 8 9 10 11 11 12 11 12 12 12 12 11 11 10 9 9 6 7 5 6 7 8 9 9 9 9 9 11
7 6 5 5 5 4 3 4 6 7 7 7 7 7 7 7 7 10 11 11 12 11 12 12 13 14 12 13 11 11 10 8 9 7 7 8 8 8 9 8 8 9 10
Wind_Direction
315 213 172 177 168 163 162 162 161 161 160 160 159 158 156 155 152 150 148 146 143 140 135 132 129 126 124 120 114 108 105 102 99 96 94 93 92 92 90 90 90 85 82
293 203 164 175 171 166 163 164 163 162 162 161 161 161 159 158 155 153 152 151 148 145 139 135 132 128 123 119 115 112 108 106 104 103 102 98 94 94 90 81 77 86 85
326 181 170 174 173 171 167 164 165 164 164 164 164 163 163 161 159 158 157 156 153 148 143 139 134 129 123 120 118 116 113 112 111 115 123 107 101 97 95 92 90 89 87
326 177 175 169 174 175 172 168 167 167 167 167 168 167 166 164 163 162 162 159 154 149 145 140 135 130 126 124 122 120 118 117 119 139 116 107 105 101 100 96 94 91 89
324 189 174 169 176 177 177 173 171 172 171 170 171 170 170 168 168 167 165 161 155 149 143 139 136 134 131 129 127 125 123 122 130 128 108 107 105 105 103 99 97 94 91
291 218 181 178 183 177 177 178 178 177 177 174 173 173 172 172 171 170 166 160 155 149 146 144 142 140 137 136 133 131 129 135 146 118 116 113 110 111 108 106 102 98 95
284 248 199 188 187 184 178 181 181 180 181 179 177 177 175 175 174 171 166 160 156 153 151 150 147 146 144 142 139 136 137 149 133 124 120 115 114 118 116 113 109 104 99
292 268 228 196 192 187 186 185 186 185 183 182 181 180 178 177 175 171 167 163 160 159 157 155 153 151 149 146 144 142 145 156 137 130 125 120 121 127 122 117 114 109 105
297 273 251 217 202 193 190 191 193 189 187 186 184 182 181 178 174 171 169 167 165 163 162 160 159 157 155 151 148 148 152 163 147 137 134 129 131 134 130 126 121 116 110
292 284 264 239 218 208 201 194 194 192 190 189 187 183 179 176 174 171 171 170 168 166 165 165 164 162 158 155 153 153 156 172 155 147 146 135 142 142 139 135 130 125 120
292 290 276 256 232 216 210 200 195 195 194 191 189 182 179 184 182 178 180 172 170 169 168 168 167 163 158 158 158 159 168 180 164 159 152 139 154 152 148 145 142 136 132
292 290 283 267 250 227 215 205 201 199 198 199 196 189 189 189 188 185 177 173 171 171 171 171 168 165 170 170 167 173 187 183 172 168 154 154 167 164 160 157 153 149 147
285 284 281 270 261 241 224 213 205 200 199 202 201 193 191 189 186 183 177 177 177 175 178 175 175 182 188 181 179 190 192 185 183 173 164 171 178 176 172 169 168 169 169
283 280 276 272 257 241 228 222 210 201 198 199 200 195 191 189 187 185 184 185 185 186 186 185 192 191 194 191 190 192 191 192 191 183 171 179 187 186 183 182 183 187 187
282 279 276 270 257 240 227 225 217 206 201 199 199 198 194 191 190 189 190 190 191 190 189 192 195 193 195 195 196 196 195 198 195 192 179 185 192 193 194 195 198 203 204
279 276 273 269 251 235 227 221 220 212 202 199 198 200 197 196 193 192 193 193 195 194 194 195 195 194 195 196 197 199 201 201 203 201 194 186 193 199 204 207 210 213 218
280 275 268 267 250 230 225 222 218 215 205 198 198 201 201 198 197 196 196 195 196 196 195 196 195 194 194 195 200 204 205 207 206 206 203 201 199 202 209 214 215 219 226
284 279 270 265 251 233 224 223 217 213 210 204 200 201 205 201 199 199 199 199 197 195 194 195 194 194 196 198 201 203 206 208 213 211 209 209 207 206 207 210 216 223 229
285 278 275 265 248 233 224 223 218 212 214 213 206 202 204 203 201 200 201 201 196 195 196 196 197 197 198 199 202 206 210 210 214 214 216 215 214 213 213 204 210 219 223
292 282 279 267 255 242 227 219 213 212 214 216 212 206 204 205 203 203 205 202 197 195 196 197 198 199 200 199 199 209 216 215 217 217 219 219 217 216 217 213 213 215 216
313 297 280 274 260 243 225 214 207 209 210 215 215 212 210 205 203 205 207 204 200 200 201 200 199 199 199 193 194 206 221 224 225 220 221 221 218 217 219 219 220 219 216
325 313 289 271 261 243 228 221 215 213 211 213 213 213 211 207 204 205 206 205 203 202 203 202 198 200 199 193 194 192 208 220 224 223 222 223 224 218 221 222 222 223 225
329 320 305 288 268 253 236 221 215 211 210 215 214 213 211 208 206 206 210 209 207 205 204 204 202 203 201 199 201 200 203 219 213 214 220 221 222 221 223 222 225 225 225
334 329 318 307 284 265 243 219 214 212 213 217 217 215 212 209 210 210 213 212 211 210 210 207 205 208 205 205 206 217 226 221 208 209 213 220 223 225 224 223 223 221 221
340 339 334 323 319 296 261 227 219 220 222 218 220 217 212 210 214 214 213 213 212 213 214 213 211 212 211 211 208 208 214 222 223 222 223 216 222 227 226 225 222 219 218
357 353 348 348 340 322 293 249 224 218 218 217 222 222 213 213 217 217 218 216 216 216 216 217 216 216 216 217 215 213 213 211 213 219 229 223 224 225 224 224 223 219 216
Height
1509 1509 1510 1512 1514 1516 1518 1520 1522 1524 1526 1527 1528 1530 1531 1532 1533 1534 1535 1536 1537 1538 1539 1539 1540 1541 1541 1542 1542 1543 1543 1543 1544 1544 1544 1544 1544 1544 1544 1544 1544 1544 1543
1509 1509 1509 1511 1514 1516 1518 1520 1522 1524 1526 1528 1529 1530 1532 1533 1534 1535 1536 1537 1538 1539 1540 1541 1542 1542 1543 1543 1544 1544 1545 1545 1546 1546 1546 1546 1546 1546 1546 1546 1546 1545 1545
1508 1509 1509 1511 1513 1515 1518 1520 1522 1524 1526 1528 1529 1531 1532 1533 1535 1536 1537 1538 1539 1540 1541 1542 1543 1544 1544 1545 1546 1546 1546 1547 1547 1548 1548 1549 1548 1548 1548 1548 1547 1547 1546
1508 1509 1509 1511 1513 1515 1517 1519 1521 1523 1525 1527 1529 1531 1532 1534 1535 1536 1538 1539 1540 1541 1542 1543 1544 1545 1545 1546 1547 1548 1548 1548 1549 1549 1551 1551 1550 1549 1549 1549 1549 1548 1548
1508 1509 1509 1511 1513 1515 1517 1519 1521 1523 1525 1527 1529 1530 1532 1534 1535 1537 1538 1539 1541 1542 1543 1544 1545 1546 1547 1547 1548 1549 1549 1550 1550 1551 1552 1552 1551 1551 1551 1550 1550 1550 1549
1508 1508 1509 1510 1512 1514 1516 1518 1520 1522 1524 1526 1528 1530 1531 1533 1535 1537 1538 1540 1541 1542 1543 1544 1546 1546 1547 1548 1549 1550 1551 1551 1552 1552 1553 1553 1552 1552 1552 1552 1551 1551 1551
1507 1508 1508 1509 1511 1513 1514 1517 1519 1521 1523 1525 1527 1529 1531 1533 1535 1536 1538 1540 1541 1542 1544 1545 1546 1547 1548 1549 1550 1551 1552 1552 1553 1553 1554 1554 1553 1553 1553 1553 1553 1552 1552
1505 1506 1507 1508 1509 1511 1513 1515 1517 1519 1522 1524 1526 1528 1530 1532 1534 1536 1538 1539 1541 1542 1544 1545 1546 1548 1549 1550 1551 1551 1552 1553 1553 1554 1554 1554 1554 1554 1554 1554 1554 1554 1553
1503 1504 1505 1506 1507 1509 1511 1513 1515 1518 1520 1522 1524 1526 1529 1531 1533 1535 1537 1539 1541 1542 1544 1545 1546 1548 1549 1550 1551 1552 1553 1553 1554 1555 1555 1555 1555 1555 1555 1555 1555 1555 1554
1501 1502 1502 1504 1505 1506 1508 1511 1513 1516 1518 1521 1523 1525 1528 1530 1532 1534 1536 1538 1540 1542 1543 1545 1546 1548 1549 1550 1551 1552 1553 1554 1555 1555 1555 1555 1555 1555 1555 1555 1555 1555 1555
1499 1499 1500 1501 1502 1504 1506 1508 1510 1513 1516 1519 1521 1524 1526 1528 1531 1533 1535 1537 1539 1541 1543 1545 1546 1548 1549 1550 1551 1552 1553 1554 1555 1555 1555 1555 1555 1555 1556 1556 1556 1556 1556
1495 1496 1496 1498 1499 1501 1503 1505 1507 1510 1513 1516 1519 1521 1524 1526 1529 1531 1533 1536 1538 1540 1542 1544 1545 1547 1548 1549 1550 1551 1552 1553 1554 1554 1555 1555 1555 1555 1556 1556 1556 1556 1556
1492 1491 1492 1494 1495 1497 1499 1501 1504 1507 1509 1512 1516 1518 1521 1524 1526 1528 1531 1534 1536 1538 1540 1542 1544 1546 1547 1548 1549 1550 1552 1553 1553 1554 1554 1554 1555 1555 1555 1555 1556 1556 1556
1487 1488 1489 1490 1491 1493 1495 1497 1500 1503 1505 1508 1511 1515 1518 1520 1523 1525 1528 1531 1533 1536 1538 1540 1542 1544 1546 1547 1548 1550 1551 1551 1552 1553 1553 1553 1554 1555 1555 1555 1555 1555 1555
1483 1484 1485 1486 1487 1489 1491 1493 1495 1498 1501 1504 1508 1511 1513 1516 1519 1522 1525 1528 1530 1533 1535 1537 1539 1542 1543 1545 1547 1548 1549 1550 1551 1551 1552 1552 1553 1553 1554 1554 1554 1554 1554
1479 1480 1481 1482 1483 1484 1486 1489 1491 1494 1497 1500 1503 1506 1509 1512 1515 1518 1521 1524 1527 1529 1532 1534 1537 1539 1541 1543 1544 1546 1547 1548 1549 1550 1550 1551 1551 1552 1552 1553 1553 1553 1553
1475 1476 1476 1477 1478 1480 1482 1484 1486 1489 1493 1496 1498 1502 1505 1508 1511 1515 1518 1520 1523 1526 1528 1531 1534 1536 1538 1540 1541 1543 1545 1546 1547 1548 1548 1549 1549 1550 1550 1551 1551 1551 1551
1471 1471 1471 1472 1474 1475 1477 1480 1482 1485 1488 1491 1494 1497 1500 1504 1507 1510 1513 1516 1519 1522 1525 1527 1530 1532 1534 1536 1538 1540 1542 1543 1544 1545 1546 1547 1547 1548 1548 1548 1549 1549 1549
1467 1467 1467 1468 1469 1470 1473 1475 1478 1480 1483 1487 1490 1492 1496 1499 1502 1506 1509 1512 1515 1518 1520 1523 1526 1528 1530 1532 1535 1536 1538 1539 1541 1542 1543 1544 1544 1545 1545 1545 1546 1546 1546
1463 1463 1463 1464 1464 1466 1468 1470 1473 1476 1478 1482 1485 1487 1491 1494 1497 1501 1504 1507 1510 1513 1516 1519 1521 1524 1526 1528 1531 1533 1535 1536 1537 1538 1539 1540 1541 1541 1542 1542 1542 1542 1543
1460 1459 1460 1460 1461 1462 1464 1466 1468 1470 1473 1477 1479 1482 1485 1488 1492 1496 1499 1502 1505 1508 1511 1514 1517 1519 1522 1524 1527 1529 1530 1531 1532 1534 1535 1536 1537 1537 1538 1538 1539 1539 1539
1457 1457 1457 1457 1458 1459 1460 1462 1464 1466 1469 1472 1474 1477 1480 1483 1487 1490 1494 1496 1499 1502 1506 1509 1512 1514 1516 1519 1521 1524 1526 1528 1527 1528 1530 1531 1532 1533 1533 1534 1534 1535 1535
1455 1454 1454 1454 1455 1455 1457 1458 1460 1463 1465 1467 1470 1473 1475 1478 1481 1485 1488 1491 1494 1497 1499 1503 1505 1508 1511 1513 1516 1518 1520 1521 1522 1523 1524 1525 1527 1527 1528 1529 1529 1530 1530
1453 1452 1451 1451 1451 1452 1453 1454 1456 1457 1459 1462 1465 1468 1471 1473 1476 1479 1483 1485 1488 1491 1494 1496 1499 1503 1505 1507 1509 1512 1514 1515 1517 1517 1518 1519 1521 1522 1523 1523 1524 1525 1525
1452 1450 1449 1448 1448 1448 1449 1450 1452 1453 1456 1459 1461 1463 1466 1469 1471 1474 1477 1480 1483 1485 1488 1491 1493 1496 1499 1501 1502 1504 1507 1509 1510 1511 1511 1513 1514 1515 1516 1517 1518 1519 1519
1450 1448 1447 1446 1445 1445 1445 1446 1448 1449 1452 1454 1457 1458 1460 1463 1466 1468 1471 1474 1477 1479 1481 1485 1487 1489 1492 1494 1496 1498 1499 1501 1503 1505 1506 1506 1507 1509 1510 1511 1512 1513 1513